Location: Hermaringen
(48.5952°N, 10.2585°E)
Time: 10:36:42
(UTC+00:00)

Explorer 7 - Visible Passes

Search period start: 16 February 2026 00:00
Search period end: 26 February 2026 00:00
Orbit: 431 x 545 km, 50.2° (Epoch: 15 February)

Date Brightness Start Highest point End Pass type
(mag) Time Alt. Az. Time Alt. Az. Time Alt. Az.
16 Feb 6.7 17:22:40 10° W 17:26:21 68° N 17:29:57 12° E visible
16 Feb 7.1 19:01:10 10° WNW 19:04:19 60° WNW 19:04:19 60° WNW visible
17 Feb 6.5 18:35:34 10° WNW 18:39:20 86° NNE 18:39:51 65° E visible
17 Feb 10.0 20:14:07 10° W 20:14:13 11° W 20:14:13 11° W visible
18 Feb 6.5 18:09:55 10° WNW 18:13:40 84° NNE 18:15:24 31° E visible
18 Feb 9.2 19:48:27 10° W 19:49:46 19° W 19:49:46 19° W visible
19 Feb 6.5 17:44:15 10° WNW 17:47:59 83° NNE 17:50:58 16° ESE visible
19 Feb 8.3 19:22:46 10° W 19:25:21 30° WSW 19:25:21 30° WSW visible
20 Feb 6.6 17:18:33 10° WNW 17:22:15 82° NNE 17:26:06 10° ESE visible
20 Feb 7.7 18:57:03 10° W 19:00:32 35° SSW 19:00:58 34° SSW visible
21 Feb 7.8 18:31:19 10° W 18:34:47 36° SSW 18:36:39 22° SSE visible
22 Feb 7.8 18:05:33 10° W 18:09:01 37° SSW 18:12:25 11° SE visible
23 Feb 7.8 17:39:45 10° W 17:43:13 38° SSW 17:46:48 10° SE visible
